SCP
0 0 0 0 0 0 0 0 0 0 0 0 0 0 0 0 0 0 0 0 0 0 0 0 0 0 0 0 0 0 0 0 0 0 0 0 0 0 0 0 0 0 0 0
0 0 0 0 0 0 0 0 0 0 0 0 0 0 0 0 0 0 0 0 0 0 0 0 0 0 0 0 0 0 0 0 0 0 0 0 0 0 0 0 0 0 0 0
0 0 0 0 0 0 0 0 0 0 0 0 0 0 0 0 0 0 0 0 0 0 0 0 0 0 0 0 0 0 0 0 0 0 0 0 0 0 0 0 0 0 0 0
0 0 0 0 0 0 0 0 0 0 0 0 0 0 0 0 0 0 0 0 0 0 0 0 0 0 0 0 0 0 0 0 0 0 0 0 0 0 0 0 0 0 0 0
0 0 0 0 0 0 0 0 0 0 0 0 0 0 0 0 0 0 0 0 0 0 0 0 0 0 0 0 0 0 0 0 0 0 0 0 0 0 0 0 0 0 0 0
0 0 0 0 0 0 0 0 0 0 0 0 0 0 0 0 0 0 0 0 0 0 0 0 0 0 0 0 0 0 0 0 0 0 0 0 0 0 0 0 0 0 0 0
0 0 0 0 0 0 0 0 0 0 0 0 0 0 0 0 0 0 0 0 0 0 0 0 0 0 0 0 0 0 0 0 0 0 0 0 0 0 0 0 0 0 0 0
0 0 0 0 0 0 0 0 0 0 0 0 0 0 0 0 0 0 0 0 0 0 0 0 0 0 0 0 0 0 0 0 0 0 0 0 0 0 0 0 0 0 0 0
0 0 0 0 0 0 0 0 0 0 0 0 0 0 0 0 0 0 0 0 0 0 0 0 0 0 0 0 0 0 0 0 0 0 0 0 0 0 0 0 0 0 0 0
0 0 0 0 0 0 0 0 0 0 0 0 0 0 0 0 0 0 0 0 0 0 0 0 0 0 0 0 0 0 0 0 0 0 0 0 0 0 0 0 0 0 0 0
0 0 0 0 0 0 0 0 0 0 0 0 0 0 0 0 0 0 0 0 0 0 0 0 0 0 0 0 0 0 0 0 0 0 0 0 0 0 0 0 0 0 0 0
0 0 0 0 0 0 0 0 0 0 0 0 0 0 0 0 0 0 0 0 0 0 0 0 0 0 0 0 0 0 0 0 0 0 0 0 0 0 0 0 0 0 0 0
0 0 0 0 0 0 0 0 0 0 0 0 0 0 0 0 0 0 0 0 0 0 0 0 0 0 0 0 0 0 0 0 0 0 0 0 0 0 0 0 0 0 0 0
0 0 0 0 0 0 0 0 0 0 0 0 0 0 0 0 0 0 0 0 0 0 0 0 0 0 0 0 0 0 0 0 0 0 0 0 0 0 0 0 0 0 0 0
0 0 0 0 0 0 0 0 0 0 0 0 0 0 0 0 0 0 0 0 0 0 0 0 0 0 0 0 0 0 0 0 0 0 0 0 0 0 0 0 0 0 0 0
0 0 0 0 0 0 0 0 0 0 0 0 0 0 0 0 0 0 0 0 0 0 0 0 0 0 0 0 0 0 0 0 0 0 0 0 0 0 0 0 0 0 0 0
0 0 0 0 0 0 0 0 0 0 0 0 0 0 0 0 0 0 0 0 0 0 0 0 0 0 0 0 0 0 0 0 0 0 0 0 0 0 0 0 0 0 0 0
0 0 0 0 0 0 0 0 0 0 0 0 0 0 0 0 0 0 0 0 0 0 0 0 0 0 0 0 0 0 0 0 0 0 0 0 0 0 0 0 0 0 0 0
0 0 0 0 0 0 0 0 0 0 0 0 0 0 0 0 0 0 0 0 0 0 0 0 0 0 0 0 0 0 0 0 0 0 0 0 0 0 0 0 0 0 0 0
0 0 0 0 0 0 0 0 0 0 0 0 0 0 0 0 0 0 0 0 0 0 0 0 0 0 0 0 0 0 0 0 0 0 0 0 0 0 0 0 0 0 0 0
0 0 0 0 0 0 0 0 0 0 0 0 0 0 0 0 0 0 0 0 0 0 0 0 0 0 0 0 0 0 0 0 0 0 0 0 0 0 0 0 0 0 0 0
0 0 0 0 0 0 0 0 0 0 0 0 0 0 0 0 0 0 0 0 0 0 0 0 0 0 0 0 0 0 0 0 0 0 0 0 0 0 0 0 0 0 0 0
0 0 0 0 0 0 0 0 0 0 0 0 0 0 0 0 0 0 0 0 0 0 0 0 0 0 0 0 0 0 0 0 0 0 0 0 0 0 0 0 0 0 0 0
0 0 0 0 0 0 0 0 0 0 0 0 0 0 0 0 0 0 0 0 0 0 0 0 0 0 0 0 0 0 0 0 0 0 0 0 0 0 0 0 0 0 0 0
0 0 0 0 0 0 0 0 0 0 0 0 0 0 0 0 0 0 0 0 0 0 0 0 0 0 0 0 0 0 0 0 0 0 0 0 0 0 0 0 0 0 0 0
0 0 0 0 0 0 0 0 0 0 0 0 0 0 0 0 0 0 0 0 0 0 0 0 0 0 0 0 0 0 0 0 0 0 0 0 0 0 0 0 0 0 0 0
Wind_Speed_500mb
9 7 18 36 9 4 7 6 7 5 1 2 11 18 27 41 25 41 51 46 34 27 25 31 31 30 30 30 32 31 26 23 19 16 17 15 15 14 9 6 3 6 7 5
7 20 20 11 9 9 3 1 7 5 1 4 10 27 22 17 8 11 23 10 19 21 29 35 33 32 31 30 33 29 26 21 19 18 17 16 15 12 8 4 3 4 5 4
14 8 20 15 8 13 10 9 7 5 4 2 12 17 8 2 4 10 15 14 19 28 36 38 36 32 31 31 31 27 23 22 20 18 16 15 14 12 6 5 4 3 2 4
11 8 11 11 17 15 10 16 11 5 5 8 4 10 10 2 4 5 7 14 21 28 31 35 37 34 31 31 30 26 24 22 21 18 15 12 11 11 6 6 5 3 2 5
18 16 12 9 13 17 10 9 12 5 6 4 3 2 15 5 7 10 12 17 22 25 28 32 32 30 31 31 27 25 25 24 20 17 14 12 10 10 8 6 6 3 4 7
10 2 7 14 4 15 18 13 15 9 6 4 12 13 11 9 9 6 7 20 22 27 29 28 30 32 35 33 29 27 25 22 18 15 13 12 9 9 8 7 6 6 5 7
3 6 3 6 12 5 7 13 5 5 5 11 6 3 16 7 5 5 12 21 23 25 29 33 36 39 38 34 31 28 25 21 17 15 13 11 9 10 9 7 8 9 5 4
17 8 17 11 12 18 12 14 11 15 9 6 6 13 12 8 3 6 7 18 23 26 28 30 32 34 34 32 30 28 25 21 17 16 14 12 10 12 11 10 10 10 7 6
13 12 3 2 4 11 13 11 10 14 4 6 8 13 15 7 4 5 9 19 22 24 29 29 30 32 32 31 29 26 24 22 19 17 15 13 11 12 12 11 11 10 9 8
11 4 2 1 2 1 6 13 7 4 9 8 7 10 10 12 15 11 10 16 17 19 25 30 31 31 32 30 27 28 26 23 21 20 16 15 12 14 14 13 11 10 10 9
9 4 2 5 14 17 7 6 5 9 9 11 5 12 11 16 17 18 14 15 14 21 23 26 28 28 29 30 32 30 30 28 25 21 19 16 13 16 17 16 12 12 12 11
10 8 8 12 7 5 5 11 12 10 11 4 6 11 7 11 17 25 24 19 15 15 19 22 24 27 30 33 34 32 31 31 27 24 23 19 17 17 19 19 15 14 14 13
30 11 8 7 10 3 9 9 7 8 6 14 13 11 7 11 13 23 28 23 20 17 17 18 23 25 28 31 33 34 33 30 30 30 27 24 20 18 19 22 20 18 16 14
51 8 11 17 6 18 13 13 13 8 9 12 13 9 10 13 17 17 26 28 24 20 17 16 17 20 24 28 32 35 35 34 35 35 33 29 24 19 20 25 25 22 19 18
29 21 27 7 3 5 11 31 32 25 25 23 17 19 22 30 27 35 37 32 26 20 16 13 13 15 18 23 29 34 36 39 38 39 37 32 28 26 24 26 27 26 22 20
10 6 8 19 4 3 6 20 37 43 24 15 8 10 10 28 26 34 38 36 26 18 12 8 7 10 15 21 25 28 32 37 41 40 37 34 33 29 25 26 30 29 25 24
18 11 8 6 7 11 11 38 29 32 15 30 32 18 12 11 25 42 44 35 28 20 13 8 5 7 11 16 22 27 31 33 38 36 34 35 35 32 27 25 29 30 26 26
31 14 4 5 9 10 9 5 34 42 33 28 8 16 27 24 43 53 44 41 33 26 20 13 7 2 2 7 12 18 25 30 31 33 33 33 33 30 28 27 27 30 27 24
25 14 8 9 7 9 9 11 18 25 32 35 35 15 14 48 40 18 38 37 36 30 25 21 18 16 12 6 2 3 10 18 24 29 31 31 31 30 28 24 24 28 28 24
24 13 10 7 10 15 13 10 23 8 11 29 46 30 31 43 19 10 48 44 41 36 32 30 27 27 26 29 24 14 10 5 14 22 27 29 29 30 29 25 24 27 26 22
14 10 16 12 8 15 13 14 34 13 14 21 65 58 60 25 10 54 61 54 48 45 43 40 38 37 37 37 33 33 30 19 7 8 17 23 25 27 26 25 26 23 18 18
17 15 9 7 3 15 21 19 29 12 9 35 55 63 65 36 51 80 70 65 60 56 50 44 41 40 39 36 32 35 36 37 32 17 2 14 20 24 26 26 23 26 20 18
8 15 16 22 16 3 49 3 23 23 28 31 61 63 79 66 80 85 78 71 65 59 54 47 42 41 38 34 32 30 36 34 33 31 24 9 9 19 23 23 24 27 23 23
1 7 9 10 13 9 42 11 20 22 23 33 51 74 79 81 96 91 86 79 70 60 53 46 39 34 34 31 28 29 28 27 27 25 24 23 16 6 16 23 24 26 29 28
9 18 14 3 2 8 25 31 34 29 30 37 50 71 82 95 96 98 89 80 71 62 52 42 33 28 26 25 23 23 23 22 21 21 21 19 17 14 8 16 24 27 29 35
9 23 20 17 22 9 29 48 41 41 44 47 65 72 79 96 102 96 87 77 68 59 49 38 30 23 20 18 20 24 25 25 24 22 20 18 17 14 12 11 16 25 29 34
Wind_Direction_500mb
177 154 204 206 165 104 147 196 225 226 167 241 239 268 279 283 268 279 284 276 259 238 221 210 199 196 194 197 201 207 216 217 225 233 246 261 282 295 297 319 327 20 0 359
104 229 213 166 185 240 28 189 256 279 252 202 323 289 262 269 251 291 295 274 202 191 177 179 184 186 193 199 196 204 207 217 216 225 242 266 283 283 279 275 288 360 357 40
182 215 173 169 157 181 220 195 215 216 346 290 328 293 330 53 97 26 56 128 159 170 168 170 175 182 189 195 196 200 207 207 213 224 242 264 279 265 255 253 270 314 27 79
250 221 141 167 205 155 222 200 177 199 90 232 24 275 301 324 265 46 108 134 150 165 170 174 178 185 191 189 193 200 201 202 210 226 243 265 273 265 254 253 253 243 120 124
227 182 162 174 206 156 224 127 148 110 106 9 263 76 271 323 240 198 203 183 175 178 183 184 184 188 188 194 198 196 195 200 210 228 248 265 264 256 260 250 244 248 148 137
223 226 200 194 105 157 154 85 52 57 72 333 218 165 272 203 208 158 177 196 191 189 188 191 187 189 192 194 197 196 195 203 216 233 252 265 247 245 254 258 250 253 200 147
144 211 257 164 93 57 106 102 22 357 7 223 18 153 248 235 205 194 188 193 190 189 193 195 195 194 197 198 195 195 199 207 222 237 252 263 249 238 240 248 257 258 228 176
169 236 168 182 193 172 184 163 158 194 194 223 114 224 248 210 239 202 223 189 182 188 195 201 204 204 202 202 200 200 202 211 221 238 251 258 249 233 236 237 245 253 238 201
157 236 344 76 151 150 185 197 150 106 45 68 211 280 289 184 159 147 165 166 179 191 197 199 204 206 206 208 207 208 210 216 221 231 245 257 253 236 230 244 249 249 239 210
198 120 314 351 146 4 162 157 92 351 136 228 267 276 238 215 203 172 165 186 192 198 201 201 204 205 208 213 215 218 216 220 226 230 237 246 248 238 230 233 242 236 225 221
121 89 305 153 215 171 153 190 192 131 158 168 172 250 216 206 181 177 175 168 188 199 199 205 207 205 209 217 221 224 222 224 227 231 234 242 246 243 231 234 229 219 219 221
127 97 175 201 293 319 303 207 174 153 226 232 155 262 327 200 166 157 159 156 151 157 188 198 202 209 210 217 223 228 228 228 230 231 236 238 239 242 233 230 230 223 226 224
162 187 128 93 335 105 228 210 198 110 91 196 153 250 12 107 136 161 157 160 153 143 151 174 192 204 208 215 221 227 232 232 233 234 236 240 242 242 239 230 230 228 230 229
160 121 196 209 197 143 204 193 201 170 176 167 219 153 211 188 175 181 170 162 159 158 155 160 172 194 210 221 228 232 235 236 233 234 234 236 240 241 240 234 229 231 233 232
175 187 189 177 208 224 216 194 193 206 210 198 196 183 201 196 192 185 172 165 164 164 160 167 186 198 214 224 233 238 238 238 239 239 236 234 236 235 237 237 229 229 232 234
175 157 149 191 97 12 257 222 202 209 203 237 113 244 208 193 168 173 174 170 170 165 165 181 211 229 233 234 238 239 239 239 239 238 236 231 232 234 236 238 234 230 235 237
156 133 135 196 141 123 281 227 204 216 205 202 211 197 155 156 181 185 176 177 172 166 165 175 212 249 258 253 249 246 243 239 234 232 228 225 227 231 232 235 237 235 235 247
161 138 99 138 137 203 246 313 203 207 210 204 120 166 180 188 184 183 181 174 167 164 159 150 130 111 290 279 276 263 250 244 235 223 221 222 225 229 231 233 234 238 240 247
169 132 130 159 189 301 249 193 161 174 227 205 203 157 127 130 128 142 177 177 166 160 153 142 124 105 92 89 54 306 241 227 216 211 215 217 215 217 226 234 236 239 244 250
167 139 118 163 158 198 229 202 160 152 268 195 195 163 153 148 161 198 170 166 156 149 142 134 122 107 93 80 68 60 66 144 192 202 209 215 219 218 217 219 222 236 246 251
164 192 163 161 205 274 241 152 150 136 238 173 179 170 163 178 181 164 162 159 154 145 136 128 120 112 98 87 80 77 73 73 95 197 214 217 218 218 222 223 223 222 242 244
161 156 166 107 144 262 155 130 173 194 124 169 175 173 169 157 150 158 160 156 153 145 138 131 123 110 98 88 78 74 69 65 62 63 169 215 215 218 220 230 230 229 223 228
133 179 170 185 206 84 183 38 187 168 155 168 175 175 170 157 158 158 156 155 151 145 137 130 120 110 100 88 77 68 62 55 51 49 50 41 233 225 226 235 241 227 222 226
84 139 147 112 211 213 192 162 174 173 168 172 182 178 174 159 159 157 154 153 150 145 138 130 122 113 101 88 74 63 56 46 38 33 33 33 26 305 244 241 239 234 231 225
191 143 148 240 288 96 188 190 171 159 156 159 173 175 170 163 160 157 155 154 150 145 138 129 120 109 94 78 61 47 36 26 17 13 12 10 11 12 328 264 248 247 237 233
194 173 179 207 169 161 186 181 176 168 162 167 165 164 166 166 160 158 154 154 151 145 139 133 123 107 89 67 39 20 5 355 348 344 338 334 338 341 341 324 271 255 248 240
Wind_Speed_850mb
9 7 18 36 9 4 7 6 7 5 1 2 11 18 27 41 25 41 51 46 34 27 25 31 31 30 30 30 32 31 26 23 19 16 17 15 15 14 9 6 3 6 7 5
7 20 20 11 9 9 3 1 7 5 1 4 10 27 22 17 8 11 23 10 19 21 29 35 33 32 31 30 33 29 26 21 19 18 17 16 15 12 8 4 3 4 5 4
14 8 20 15 8 13 10 9 7 5 4 2 12 17 8 2 4 10 15 14 19 28 36 38 36 32 31 31 31 27 23 22 20 18 16 15 14 12 6 5 4 3 2 4
11 8 11 11 17 15 10 16 11 5 5 8 4 10 10 2 4 5 7 14 21 28 31 35 37 34 31 31 30 26 24 22 21 18 15 12 11 11 6 6 5 3 2 5
18 16 12 9 13 17 10 9 12 5 6 4 3 2 15 5 7 10 12 17 22 25 28 32 32 30 31 31 27 25 25 24 20 17 14 12 10 10 8 6 6 3 4 7
10 2 7 14 4 15 18 13 15 9 6 4 12 13 11 9 9 6 7 20 22 27 29 28 30 32 35 33 29 27 25 22 18 15 13 12 9 9 8 7 6 6 5 7
3 6 3 6 12 5 7 13 5 5 5 11 6 3 16 7 5 5 12 21 23 25 29 33 36 39 38 34 31 28 25 21 17 15 13 11 9 10 9 7 8 9 5 4
17 8 17 11 12 18 12 14 11 15 9 6 6 13 12 8 3 6 7 18 23 26 28 30 32 34 34 32 30 28 25 21 17 16 14 12 10 12 11 10 10 10 7 6
13 12 3 2 4 11 13 11 10 14 4 6 8 13 15 7 4 5 9 19 22 24 29 29 30 32 32 31 29 26 24 22 19 17 15 13 11 12 12 11 11 10 9 8
11 4 2 1 2 1 6 13 7 4 9 8 7 10 10 12 15 11 10 16 17 19 25 30 31 31 32 30 27 28 26 23 21 20 16 15 12 14 14 13 11 10 10 9
9 4 2 5 14 17 7 6 5 9 9 11 5 12 11 16 17 18 14 15 14 21 23 26 28 28 29 30 32 30 30 28 25 21 19 16 13 16 17 16 12 12 12 11
10 8 8 12 7 5 5 11 12 10 11 4 6 11 7 11 17 25 24 19 15 15 19 22 24 27 30 33 34 32 31 31 27 24 23 19 17 17 19 19 15 14 14 13
30 11 8 7 10 3 9 9 7 8 6 14 13 11 7 11 13 23 28 23 20 17 17 18 23 25 28 31 33 34 33 30 30 30 27 24 20 18 19 22 20 18 16 14
51 8 11 17 6 18 13 13 13 8 9 12 13 9 10 13 17 17 26 28 24 20 17 16 17 20 24 28 32 35 35 34 35 35 33 29 24 19 20 25 25 22 19 18
29 21 27 7 3 5 11 31 32 25 25 23 17 19 22 30 27 35 37 32 26 20 16 13 13 15 18 23 29 34 36 39 38 39 37 32 28 26 24 26 27 26 22 20
10 6 8 19 4 3 6 20 37 43 24 15 8 10 10 28 26 34 38 36 26 18 12 8 7 10 15 21 25 28 32 37 41 40 37 34 33 29 25 26 30 29 25 24
18 11 8 6 7 11 11 38 29 32 15 30 32 18 12 11 25 42 44 35 28 20 13 8 5 7 11 16 22 27 31 33 38 36 34 35 35 32 27 25 29 30 26 26
31 14 4 5 9 10 9 5 34 42 33 28 8 16 27 24 43 53 44 41 33 26 20 13 7 2 2 7 12 18 25 30 31 33 33 33 33 30 28 27 27 30 27 24
25 14 8 9 7 9 9 11 18 25 32 35 35 15 14 48 40 18 38 37 36 30 25 21 18 16 12 6 2 3 10 18 24 29 31 31 31 30 28 24 24 28 28 24
24 13 10 7 10 15 13 10 23 8 11 29 46 30 31 43 19 10 48 44 41 36 32 30 27 27 26 29 24 14 10 5 14 22 27 29 29 30 29 25 24 27 26 22
14 10 16 12 8 15 13 14 34 13 14 21 65 58 60 25 10 54 61 54 48 45 43 40 38 37 37 37 33 33 30 19 7 8 17 23 25 27 26 25 26 23 18 18
17 15 9 7 3 15 21 19 29 12 9 35 55 63 65 36 51 80 70 65 60 56 50 44 41 40 39 36 32 35 36 37 32 17 2 14 20 24 26 26 23 26 20 18
8 15 16 22 16 3 49 3 23 23 28 31 61 63 79 66 80 85 78 71 65 59 54 47 42 41 38 34 32 30 36 34 33 31 24 9 9 19 23 23 24 27 23 23
1 7 9 10 13 9 42 11 20 22 23 33 51 74 79 81 96 91 86 79 70 60 53 46 39 34 34 31 28 29 28 27 27 25 24 23 16 6 16 23 24 26 29 28
9 18 14 3 2 8 25 31 34 29 30 37 50 71 82 95 96 98 89 80 71 62 52 42 33 28 26 25 23 23 23 22 21 21 21 19 17 14 8 16 24 27 29 35
9 23 20 17 22 9 29 48 41 41 44 47 65 72 79 96 102 96 87 77 68 59 49 38 30 23 20 18 20 24 25 25 24 22 20 18 17 14 12 11 16 25 29 34
Wind_Direction_850mb
177 154 204 206 165 104 147 196 225 226 167 241 239 268 279 283 268 279 284 276 259 238 221 210 199 196 194 197 201 207 216 217 225 233 246 261 282 295 297 319 327 20 0 359
104 229 213 166 185 240 28 189 256 279 252 202 323 289 262 269 251 291 295 274 202 191 177 179 184 186 193 199 196 204 207 217 216 225 242 266 283 283 279 275 288 360 357 40
182 215 173 169 157 181 220 195 215 216 346 290 328 293 330 53 97 26 56 128 159 170 168 170 175 182 189 195 196 200 207 207 213 224 242 264 279 265 255 253 270 314 27 79
250 221 141 167 205 155 222 200 177 199 90 232 24 275 301 324 265 46 108 134 150 165 170 174 178 185 191 189 193 200 201 202 210 226 243 265 273 265 254 253 253 243 120 124
227 182 162 174 206 156 224 127 148 110 106 9 263 76 271 323 240 198 203 183 175 178 183 184 184 188 188 194 198 196 195 200 210 228 248 265 264 256 260 250 244 248 148 137
223 226 200 194 105 157 154 85 52 57 72 333 218 165 272 203 208 158 177 196 191 189 188 191 187 189 192 194 197 196 195 203 216 233 252 265 247 245 254 258 250 253 200 147
144 211 257 164 93 57 106 102 22 357 7 223 18 153 248 235 205 194 188 193 190 189 193 195 195 194 197 198 195 195 199 207 222 237 252 263 249 238 240 248 257 258 228 176
169 236 168 182 193 172 184 163 158 194 194 223 114 224 248 210 239 202 223 189 182 188 195 201 204 204 202 202 200 200 202 211 221 238 251 258 249 233 236 237 245 253 238 201
157 236 344 76 151 150 185 197 150 106 45 68 211 280 289 184 159 147 165 166 179 191 197 199 204 206 206 208 207 208 210 216 221 231 245 257 253 236 230 244 249 249 239 210
198 120 314 351 146 4 162 157 92 351 136 228 267 276 238 215 203 172 165 186 192 198 201 201 204 205 208 213 215 218 216 220 226 230 237 246 248 238 230 233 242 236 225 221
121 89 305 153 215 171 153 190 192 131 158 168 172 250 216 206 181 177 175 168 188 199 199 205 207 205 209 217 221 224 222 224 227 231 234 242 246 243 231 234 229 219 219 221
127 97 175 201 293 319 303 207 174 153 226 232 155 262 327 200 166 157 159 156 151 157 188 198 202 209 210 217 223 228 228 228 230 231 236 238 239 242 233 230 230 223 226 224
162 187 128 93 335 105 228 210 198 110 91 196 153 250 12 107 136 161 157 160 153 143 151 174 192 204 208 215 221 227 232 232 233 234 236 240 242 242 239 230 230 228 230 229
160 121 196 209 197 143 204 193 201 170 176 167 219 153 211 188 175 181 170 162 159 158 155 160 172 194 210 221 228 232 235 236 233 234 234 236 240 241 240 234 229 231 233 232
175 187 189 177 208 224 216 194 193 206 210 198 196 183 201 196 192 185 172 165 164 164 160 167 186 198 214 224 233 238 238 238 239 239 236 234 236 235 237 237 229 229 232 234
175 157 149 191 97 12 257 222 202 209 203 237 113 244 208 193 168 173 174 170 170 165 165 181 211 229 233 234 238 239 239 239 239 238 236 231 232 234 236 238 234 230 235 237
156 133 135 196 141 123 281 227 204 216 205 202 211 197 155 156 181 185 176 177 172 166 165 175 212 249 258 253 249 246 243 239 234 232 228 225 227 231 232 235 237 235 235 247
161 138 99 138 137 203 246 313 203 207 210 204 120 166 180 188 184 183 181 174 167 164 159 150 130 111 290 279 276 263 250 244 235 223 221 222 225 229 231 233 234 238 240 247
169 132 130 159 189 301 249 193 161 174 227 205 203 157 127 130 128 142 177 177 166 160 153 142 124 105 92 89 54 306 241 227 216 211 215 217 215 217 226 234 236 239 244 250
167 139 118 163 158 198 229 202 160 152 268 195 195 163 153 148 161 198 170 166 156 149 142 134 122 107 93 80 68 60 66 144 192 202 209 215 219 218 217 219 222 236 246 251
164 192 163 161 205 274 241 152 150 136 238 173 179 170 163 178 181 164 162 159 154 145 136 128 120 112 98 87 80 77 73 73 95 197 214 217 218 218 222 223 223 222 242 244
161 156 166 107 144 262 155 130 173 194 124 169 175 173 169 157 150 158 160 156 153 145 138 131 123 110 98 88 78 74 69 65 62 63 169 215 215 218 220 230 230 229 223 228
133 179 170 185 206 84 183 38 187 168 155 168 175 175 170 157 158 158 156 155 151 145 137 130 120 110 100 88 77 68 62 55 51 49 50 41 233 225 226 235 241 227 222 226
84 139 147 112 211 213 192 162 174 173 168 172 182 178 174 159 159 157 154 153 150 145 138 130 122 113 101 88 74 63 56 46 38 33 33 33 26 305 244 241 239 234 231 225
191 143 148 240 288 96 188 190 171 159 156 159 173 175 170 163 160 157 155 154 150 145 138 129 120 109 94 78 61 47 36 26 17 13 12 10 11 12 328 264 248 247 237 233
194 173 179 207 169 161 186 181 176 168 162 167 165 164 166 166 160 158 154 154 151 145 139 133 123 107 89 67 39 20 5 355 348 344 338 334 338 341 341 324 271 255 248 240